KUIPER-00050 (64510 NORAD) Tracking and Keplerian Element Data

This shows tracking and keplerian element data for the satellite.

Feedback or suggestion? Click here.




ElementValue
Catalog64510
NameKUIPER-00050
Epoch Orbit2843
Epoch Day353.98924623
Epoch Year2025
RAAN214.0956
Inclination51.8885
Eccentricity0.0004977
Argument of Perigee60.6118
Mean Anonmoly299.5348
Mean Motion14.9673636
Decay Rate3.4E-05
L11 64510U 25134L 25353.98924623 .00003400 00000+0 31645-3 0 9990
L22 64510 51.8885 214.0956 0004977 60.6118 299.5348 14.96736360 28431



Live tracking and technical data element details for KUIPER-00050 (NORAD 64510). KUIPER-00050 can be tracked NOW for your location showing map with azimuth and elevation plus other details from your city location.







IsCatalogInMostPopularTable: catalog: 64510, numindb: 3
Update: records affected: 1



GetName: 64510 KUIPER-00050

Hit Count: updated at: Sat, 11 Apr 2026 21:38:38 GMT